Dewpoint
55 55 56 57 57 58 59 59 60 59 60 61 62 61 62 62 61 61 61 61 62 62 62 62 62 61 61 61 60 59 58 58 57 57 56 56 57 56 58 57 57 57 56 54 49 47 45 45 45 47 49 49 51 54 58 58 59 59 57 51 49 49 49
55 55 56 57 56 56 56 56 58 58 58 59 61 61 60 62 62 61 60 60 60 61 62 61 60 62 61 60 60 59 58 58 57 56 57 57 56 57 57 55 56 56 55 53 52 50 46 44 44 45 44 46 47 50 55 57 57 53 49 49 49 48 50
55 55 55 54 54 54 55 55 55 56 56 56 57 57 57 59 59 61 61 61 61 61 61 60 60 60 60 60 60 59 58 58 57 57 57 57 57 57 57 57 54 53 52 51 51 48 47 47 44 44 44 43 44 46 52 53 50 48 47 46 45 44 44
54 53 52 52 53 54 54 53 54 56 56 56 56 56 56 57 57 58 56 56 58 61 61 60 59 60 60 60 60 59 58 58 58 58 57 57 57 57 57 57 55 52 51 50 50 50 47 45 44 45 44 43 45 48 48 50 48 45 44 44 42 42 42
52 52 51 50 51 53 53 53 54 55 55 55 55 55 56 57 58 57 57 57 58 59 59 60 60 60 60 60 60 59 59 58 58 58 58 57 57 57 56 56 55 54 53 52 52 51 46 45 44 43 43 44 44 44 45 45 45 46 44 43 43 43 43
52 51 50 50 51 52 53 54 54 54 54 54 54 55 55 56 56 55 56 56 56 57 58 59 59 60 60 60 60 60 59 59 59 58 58 57 57 57 56 55 56 56 54 53 54 50 46 46 44 43 43 44 43 42 41 42 39 40 45 45 43 42 42
52 52 51 50 51 53 54 54 54 54 54 53 54 54 55 57 56 56 56 55 56 57 58 58 59 59 59 59 59 58 58 58 58 57 56 55 56 55 56 55 55 55 54 55 54 48 46 45 43 42 42 40 40 38 32 30 38 38 41 45 45 43 43
53 53 53 52 53 53 53 54 54 54 54 52 53 54 56 56 55 55 55 55 56 57 57 57 58 58 58 59 58 57 57 57 57 56 55 55 55 55 53 53 52 52 53 54 53 48 46 45 44 43 40 38 36 33 30 28 31 37 38 40 44 45 44
54 54 54 53 53 53 53 53 54 54 54 54 54 55 54 55 55 55 55 55 55 56 56 56 56 57 57 56 55 54 52 53 51 51 50 49 49 49 48 48 48 47 49 51 53 50 46 46 45 44 40 38 34 30 32 30 32 34 39 38 40 44 46
54 53 53 53 52 53 54 55 55 55 55 55 54 54 53 53 54 54 54 54 55 55 55 54 54 53 53 52 51 49 49 50 49 47 47 46 47 47 47 47 47 47 47 49 51 51 48 46 45 43 39 36 35 28 28 30 32 35 34 36 36 39 45
54 53 53 53 55 55 54 55 54 54 54 54 54 54 54 54 54 56 53 52 53 52 52 51 51 50 50 50 49 49 49 50 51 50 50 49 49 49 49 48 48 48 48 48 49 49 47 46 44 43 42 41 35 29 32 31 31 39 35 37 35 35 39
54 54 55 56 55 54 54 53 53 53 53 54 54 52 52 52 52 52 51 51 51 50 50 50 50 49 49 48 49 49 50 50 49 49 48 48 48 48 49 49 48 47 47 48 48 47 48 47 46 46 46 45 40 33 34 35 35 38 38 36 36 35 37
55 55 55 54 53 53 53 52 53 52 53 52 51 51 51 51 51 50 49 48 49 49 49 48 48 47 48 48 49 49 49 49 49 49 49 49 48 48 48 48 48 47 47 46 47 48 47 47 47 47 47 44 41 40 40 39 35 36 43 40 38 35 37
55 55 54 53 53 53 52 52 52 52 52 50 50 50 50 50 50 49 47 48 47 47 46 46 47 47 48 48 48 48 49 50 49 49 49 48 49 49 49 48 48 48 47 45 45 46 47 47 47 47 46 43 43 43 40 40 37 39 40 44 40 35 36
55 55 54 54 53 53 52 51 52 51 50 50 50 49 48 49 49 48 47 47 47 46 46 45 46 46 47 47 47 49 48 49 48 48 47 47 47 48 47 46 47 46 46 44 45 42 43 44 45 45 44 43 42 42 43 42 40 39 38 41 37 40 39
54 54 53 54 53 53 52 51 51 50 50 50 50 48 47 48 48 47 47 47 47 45 45 45 46 47 46 46 46 47 49 48 48 47 47 47 47 47 46 47 47 47 48 46 47 46 45 44 44 44 45 44 43 44 45 42 42 40 38 39 41 36 39
53 53 53 53 53 53 52 52 51 50 50 50 49 48 46 46 46 46 46 46 46 45 45 47 47 46 45 45 46 47 48 48 49 47 47 47 46 46 46 47 47 48 49 49 48 47 47 47 46 46 46 46 46 46 46 44 41 42 40 39 41 36 38
52 52 52 53 53 53 52 52 52 50 50 49 49 48 48 46 46 46 46 45 45 45 47 48 46 46 47 47 47 48 48 49 48 47 47 46 48 46 47 46 48 48 48 48 48 48 47 47 47 47 46 46 46 47 48 45 45 45 41 39 40 42 42
56 52 53 52 53 52 51 51 51 51 49 48 49 49 50 47 46 44 44 44 45 45 47 47 45 47 48 48 48 47 48 48 47 46 46 47 47 46 46 46 48 49 48 48 48 48 48 48 48 47 46 47 48 47 47 47 46 44 41 40 41 41 41
55 55 54 53 53 53 51 51 51 50 51 48 48 48 49 48 47 43 43 44 45 46 47 46 46 48 49 47 47 46 47 47 47 46 46 47 47 47 46 47 48 49 48 48 48 48 49 48 49 48 48 48 48 47 47 46 46 45 44 44 44 43 41
56 55 55 55 55 54 53 53 53 51 52 49 49 49 48 48 47 45 43 44 45 46 46 46 45 47 48 47 46 46 46 47 48 47 46 47 47 47 47 47 49 49 50 50 49 49 50 49 48 48 48 49 48 47 47 46 45 45 45 44 43 42 43
56 56 56 56 56 55 55 54 54 53 51 50 51 49 47 47 47 47 46 44 45 47 47 46 46 46 47 48 47 46 47 50 49 47 47 48 49 50 50 50 50 50 52 54 51 51 51 51 50 49 48 48 47 47 46 45 45 44 44 43 43 43 42
56 55 56 56 56 55 54 55 54 53 53 50 49 49 47 49 46 47 46 45 45 47 47 47 49 47 47 48 48 48 49 50 49 49 50 50 50 51 52 51 52 55 54 53 50 47 47 48 50 51 50 49 48 47 47 45 44 44 44 43 43 43 41
55 55 55 55 55 56 56 55 55 55 54 53 51 49 49 49 47 46 46 46 46 47 47 48 45 42 42 45 48 49 49 50 50 51 52 51 52 52 50 50 51 53 52 51 47 44 44 44 44 46 48 49 50 49 48 46 45 45 45 44 44 43 42
54 54 55 55 55 55 55 55 55 54 54 54 54 53 51 50 49 48 47 47 46 47 47 46 43 42 42 43 46 50 50 49 51 51 52 52 52 52 52 52 50 51 50 49 48 45 43 41 40 40 39 39 39 39 45 48 48 46 46 45 45 44 43
54 54 54 54 54 54 53 54 54 54 54 53 53 54 53 52 52 51 50 49 48 49 48 45 43 42 41 42 43 47 50 49 51 52 52 52 52 52 52 52 51 52 53 54 52 47 45 43 40 39 39 38 36 35 35 40 44 48 47 46 45 44 44
44 49 51 52 52 53 53 53 53 53 52 52 51 52 52 52 52 51 50 49 49 48 48 47 42 42 41 40 41 44 50 50 51 52 53 53 53 53 53 53 52 52 51 53 51 48 46 44 42 40 40 39 38 37 38 38 38 42 45 46 45 44 44
40 42 43 44 44 45 48 50 51 51 51 52 52 52 51 51 51 51 51 51 50 50 50 47 42 41 41 40 40 41 49 52 51 51 53 53 53 53 53 53 53 52 51 52 53 50 48 45 43 42 41 40 39 42 40 40 41 42 42 44 45 45 45
38 38 39 39 39 41 42 44 45 48 49 49 49 50 50 51 51 53 53 52 51 51 52 47 42 41 41 41 41 46 49 52 52 52 52 52 52 53 54 53 52 52 51 51 50 46 47 47 45 44 43 42 39 36 36 37 37 37 43 45 45 44 41
38 37 38 37 37 37 38 38 39 43 43 44 46 47 49 50 50 50 51 52 52 52 51 48 43 41 41 41 43 49 50 52 52 52 52 51 52 52 53 53 53 52 51 50 47 44 44 45 47 46 45 41 38 36 35 36 36 37 39 39 38 37 37
38 38 37 37 37 38 38 38 37 39 39 39 40 42 45 47 49 49 50 50 50 50 51 49 44 42 41 40 44 49 50 51 51 51 51 51 51 51 51 52 53 52 51 50 44 41 42 45 48 47 44 40 37 36 34 36 35 35 36 35 35 35 35
38 37 37 37 38 37 37 37 38 38 38 38 39 40 42 43 44 45 47 48 52 51 51 50 46 43 42 41 43 47 48 49 49 49 50 50 49 49 46 46 49 51 51 47 40 39 41 46 50 48 45 41 39 37 36 34 32 31 31 31 32 31 31
38 38 37 37 38 38 38 37 37 37 37 37 37 38 38 38 38 39 41 45 47 49 50 51 50 46 44 42 42 48 48 47 47 48 49 50 50 48 45 43 44 42 44 43 40 39 41 43 49 48 46 44 41 41 37 35 34 33 34 34 33 37 36
38 38 38 38 38 38 38 37 37 37 37 37 36 36 36 37 37 37 39 40 43 45 48 50 50 46 45 44 42 44 49 49 49 49 48 48 48 48 47 43 41 39 41 40 38 38 39 42 45 48 46 45 44 43 39 37 37 39 39 40 39 38 39
38 39 38 38 37 37 37 38 37 37 36 35 35 35 35 35 35 36 36 38 40 42 45 47 49 47 46 45 44 42 47 49 50 50 49 48 48 48 47 46 43 39 38 38 38 38 39 40 42 47 46 42 39 37 38 38 40 41 39 39 39 37 35
37 38 37 37 36 35 36 36 35 35 35 35 34 34 34 34 34 34 34 34 35 37 40 43 42 44 43 43 44 43 42 46 45 49 50 49 49 49 47 44 42 39 37 37 37 38 39 40 42 43 40 38 37 36 37 40 40 39 38 35 34 34 34
36 36 36 36 36 35 35 35 35 35 35 34 34 34 34 34 33 33 33 33 34 35 38 40 40 39 41 41 42 43 42 41 42 48 50 50 50 48 44 42 41 36 36 36 35 35 36 38 40 36 37 37 36 38 41 40 40 37 34 33 33 33 33